Time,TemperatureF,DewpointF,PressureIn,WindDirection,WindDirectionDegrees,WindSpeedMPH,WindSpeedGustMPH,Humidity,HourlyPrecipIn,Conditions,Clouds,dailyrainin,SoftwareType,DateUTC
2013-05-09 00:03:00,65.0,60.0,30.03,North,360,0.0,0.0,85,0.00,,,0.00,,2013-05-09 04:03:00,
2013-05-09 00:12:00,65.0,60.0,30.03,North,360,0.0,0.0,85,0.00,,,0.00,,2013-05-09 04:12:00,
2013-05-09 00:23:00,65.0,61.0,30.03,North,360,0.0,0.0,86,0.00,,,0.00,,2013-05-09 04:23:00,
2013-05-09 00:33:00,65.0,61.0,30.03,North,360,0.0,0.0,87,0.00,,,0.00,,2013-05-09 04:33:00,
2013-05-09 00:43:00,65.0,61.0,30.03,North,360,0.0,0.0,87,0.00,,,0.00,,2013-05-09 04:43:00,
2013-05-09 00:53:00,64.0,60.0,30.03,North,360,0.0,0.0,87,0.00,,,0.00,,2013-05-09 04:53:00,
2013-05-09 01:02:00,64.0,60.0,30.03,North,360,0.0,0.0,88,0.00,,,0.00,,2013-05-09 05:02:00,
2013-05-09 01:12:00,64.0,60.0,30.03,North,360,0.0,0.0,88,0.00,,,0.00,,2013-05-09 05:12:00,
2013-05-09 01:22:00,64.0,60.0,30.03,North,360,0.0,0.0,88,0.00,,,0.00,,2013-05-09 05:22:00,
2013-05-09 01:32:00,64.0,60.0,30.03,North,360,0.0,0.0,88,0.00,,,0.00,,2013-05-09 05:32:00,
2013-05-09 01:42:00,63.0,60.0,30.02,North,360,0.0,0.0,89,0.00,,,0.00,,2013-05-09 05:42:00,
2013-05-09 01:52:00,63.0,60.0,30.02,North,360,0.0,0.0,89,0.00,,,0.00,,2013-05-09 05:52:00,
2013-05-09 02:02:00,64.0,61.0,30.02,North,360,0.0,0.0,90,0.00,,,0.00,,2013-05-09 06:02:00,
2013-05-09 02:12:00,64.0,61.0,30.02,North,360,0.0,0.0,90,0.00,,,0.00,,2013-05-09 06:12:00,
2013-05-09 02:21:00,63.0,60.0,30.01,North,360,0.0,0.0,91,0.00,,,0.00,,2013-05-09 06:21:00,
2013-05-09 02:32:00,64.0,61.0,30.01,North,360,0.0,0.0,91,0.00,,,0.00,,2013-05-09 06:32:00,
2013-05-09 02:42:00,64.0,62.0,30.01,North,360,0.0,0.0,92,0.00,,,0.00,,2013-05-09 06:42:00,
2013-05-09 02:52:00,64.0,62.0,30.01,North,360,0.0,0.0,92,0.00,,,0.00,,2013-05-09 06:52:00,
2013-05-09 03:01:00,63.0,61.0,30.00,North,360,0.0,0.0,92,0.00,,,0.00,,2013-05-09 07:01:00,
2013-05-09 03:12:00,63.0,61.0,29.99,North,360,0.0,0.0,92,0.00,,,0.00,,2013-05-09 07:12:00,
2013-05-09 03:21:00,63.0,61.0,29.99,North,360,0.0,0.0,92,0.00,,,0.00,,2013-05-09 07:21:00,
2013-05-09 03:32:00,63.0,61.0,29.99,North,360,0.0,0.0,92,0.00,,,0.00,,2013-05-09 07:32:00,
2013-05-09 03:42:00,63.0,61.0,29.99,North,360,0.0,0.0,93,0.00,,,0.00,,2013-05-09 07:42:00,
2013-05-09 03:52:00,63.0,61.0,29.99,North,360,0.0,0.0,93,0.00,,,0.00,,2013-05-09 07:52:00,
2013-05-09 04:02:00,63.0,61.0,29.99,North,360,0.0,0.0,93,0.00,,,0.00,,2013-05-09 08:02:00,
2013-05-09 04:11:00,63.0,61.0,29.99,North,360,0.0,0.0,93,0.00,,,0.00,,2013-05-09 08:11:00,
2013-05-09 04:21:00,63.0,61.0,29.99,North,360,0.0,0.0,93,0.00,,,0.00,,2013-05-09 08:21:00,
2013-05-09 04:32:00,63.0,61.0,29.98,North,360,0.0,0.0,94,0.00,,,0.00,,2013-05-09 08:32:00,
2013-05-09 04:42:00,63.0,61.0,29.99,North,360,0.0,0.0,94,0.00,,,0.00,,2013-05-09 08:42:00,
2013-05-09 04:52:00,63.0,61.0,29.99,North,360,0.0,0.0,94,0.00,,,0.00,,2013-05-09 08:52:00,
2013-05-09 05:02:00,63.0,61.0,29.99,North,360,0.0,0.0,94,0.00,,,0.00,,2013-05-09 09:02:00,
2013-05-09 05:11:00,63.0,61.0,29.99,North,360,0.0,0.0,94,0.00,,,0.00,,2013-05-09 09:11:00,
2013-05-09 05:21:00,63.0,62.0,29.99,North,360,0.0,0.0,95,0.00,,,0.00,,2013-05-09 09:21:00,
2013-05-09 05:32:00,62.0,61.0,29.99,North,360,0.0,0.0,95,0.00,,,0.00,,2013-05-09 09:32:00,
2013-05-09 05:43:00,62.0,61.0,29.99,North,360,0.0,0.0,95,0.00,,,0.00,,2013-05-09 09:43:00,
2013-05-09 05:53:00,62.0,61.0,29.99,North,360,0.0,0.0,95,0.00,,,0.00,,2013-05-09 09:53:00,
2013-05-09 06:02:00,62.0,61.0,29.99,North,360,0.0,0.0,95,0.00,,,0.00,,2013-05-09 10:02:00,
2013-05-09 06:12:00,62.0,61.0,29.99,North,360,0.0,0.0,95,0.00,,,0.00,,2013-05-09 10:12:00,
2013-05-09 06:22:00,62.0,61.0,29.99,North,360,0.0,0.0,95,0.00,,,0.00,,2013-05-09 10:22:00,
2013-05-09 06:33:00,62.0,61.0,29.99,North,360,0.0,0.0,95,0.00,,,0.00,,2013-05-09 10:33:00,
2013-05-09 06:42:00,62.0,61.0,29.99,North,360,0.0,0.0,96,0.00,,,0.00,,2013-05-09 10:42:00,
2013-05-09 06:52:00,62.0,61.0,29.99,North,360,0.0,0.0,96,0.00,,,0.00,,2013-05-09 10:52:00,
2013-05-09 07:02:00,62.0,61.0,29.99,North,360,0.0,0.0,96,0.00,,,0.00,,2013-05-09 11:02:00,
2013-05-09 07:12:00,62.0,61.0,30.00,North,360,0.0,0.0,96,0.00,,,0.00,,2013-05-09 11:12:00,
2013-05-09 07:22:00,62.0,61.0,30.00,North,360,0.0,0.0,96,0.00,,,0.00,,2013-05-09 11:22:00,
2013-05-09 07:32:00,62.0,61.0,30.00,North,360,0.0,0.0,96,0.00,,,0.00,,2013-05-09 11:32:00,
2013-05-09 07:42:00,63.0,62.0,30.01,North,360,0.0,0.0,97,0.00,,,0.00,,2013-05-09 11:42:00,
2013-05-09 07:52:00,63.0,62.0,30.01,North,360,0.0,0.0,97,0.00,,,0.00,,2013-05-09 11:52:00,
2013-05-09 08:01:00,63.0,62.0,30.01,North,360,0.0,0.0,97,0.00,,,0.00,,2013-05-09 12:01:00,
2013-05-09 08:11:00,64.0,63.0,30.03,North,360,0.0,0.0,97,0.00,,,0.00,,2013-05-09 12:11:00,
2013-05-09 08:22:00,64.0,63.0,30.03,North,360,0.0,0.0,97,0.00,,,0.00,,2013-05-09 12:22:00,
2013-05-09 08:32:00,65.0,64.0,30.03,North,360,0.0,0.0,97,0.00,,,0.00,,2013-05-09 12:32:00,
2013-05-09 08:42:00,66.0,65.0,30.03,North,360,0.0,0.0,97,0.00,,,0.00,,2013-05-09 12:42:00,
2013-05-09 08:52:00,66.0,65.0,30.03,North,360,0.0,0.0,97,0.00,,,0.00,,2013-05-09 12:52:00,
2013-05-09 09:01:00,67.0,66.0,30.03,North,360,0.0,0.0,95,0.00,,,0.00,,2013-05-09 13:01:00,
2013-05-09 09:12:00,67.0,66.0,30.03,North,360,0.0,0.0,95,0.00,,,0.00,,2013-05-09 13:12:00,
2013-05-09 09:22:00,69.0,66.0,30.04,North,360,0.0,2.0,91,0.00,,,0.00,,2013-05-09 13:22:00,
2013-05-09 09:32:00,71.0,67.0,30.05,North,360,0.0,2.0,87,0.00,,,0.00,,2013-05-09 13:32:00,
2013-05-09 09:42:00,72.0,67.0,30.05,North,360,0.0,0.0,84,0.00,,,0.00,,2013-05-09 13:42:00,
2013-05-09 09:52:00,72.0,67.0,30.05,North,360,0.0,0.0,84,0.00,,,0.00,,2013-05-09 13:52:00,
2013-05-09 10:02:00,73.0,66.0,30.05,NNE,24,0.0,1.0,80,0.00,,,0.00,,2013-05-09 14:02:00,
2013-05-09 10:11:00,74.0,67.0,30.05,North,360,0.0,0.0,78,0.00,,,0.00,,2013-05-09 14:11:00,
2013-05-09 10:22:00,74.0,67.0,30.05,North,360,0.0,0.0,78,0.00,,,0.00,,2013-05-09 14:22:00,
2013-05-09 10:32:00,74.0,66.0,30.05,North,360,0.0,0.0,76,0.00,,,0.00,,2013-05-09 14:32:00,
2013-05-09 10:42:00,73.0,65.0,30.05,North,360,0.0,0.0,76,0.00,,,0.00,,2013-05-09 14:42:00,
2013-05-09 10:52:00,73.0,65.0,30.05,North,360,0.0,0.0,76,0.00,,,0.00,,2013-05-09 14:52:00,
2013-05-09 11:01:00,73.0,65.0,30.05,NE,36,0.0,0.0,77,0.00,,,0.00,,2013-05-09 15:01:00,
2013-05-09 11:11:00,74.0,66.0,30.05,North,360,0.0,0.0,75,0.00,,,0.00,,2013-05-09 15:11:00,
2013-05-09 11:22:00,74.0,66.0,30.05,North,360,0.0,0.0,75,0.00,,,0.00,,2013-05-09 15:22:00,
2013-05-09 11:33:00,75.0,65.0,30.05,North,360,0.0,0.0,71,0.00,,,0.00,,2013-05-09 15:33:00,
2013-05-09 11:43:00,75.0,64.0,30.05,North,360,0.0,0.0,69,0.00,,,0.00,,2013-05-09 15:43:00,
2013-05-09 11:53:00,75.0,64.0,30.05,North,360,0.0,0.0,69,0.00,,,0.00,,2013-05-09 15:53:00,
2013-05-09 12:03:00,76.0,65.0,30.05,North,360,0.0,0.0,68,0.00,,,0.00,,2013-05-09 16:03:00,
2013-05-09 12:12:00,78.0,64.0,30.05,NNE,27,4.0,6.0,63,0.00,,,0.00,,2013-05-09 16:12:00,
2013-05-09 12:23:00,78.0,64.0,30.05,NNE,27,4.0,6.0,63,0.00,,,0.00,,2013-05-09 16:23:00,
2013-05-09 12:33:00,80.0,67.0,30.05,SE,136,2.0,2.0,64,0.00,,,0.00,,2013-05-09 16:33:00,
2013-05-09 12:42:00,78.0,65.0,30.05,North,360,0.0,0.0,64,0.00,,,0.00,,2013-05-09 16:42:00,
2013-05-09 12:53:00,78.0,65.0,30.05,North,360,0.0,0.0,64,0.00,,,0.00,,2013-05-09 16:53:00,
2013-05-09 13:02:00,77.0,64.0,30.05,NE,51,1.0,1.0,65,0.00,,,0.00,,2013-05-09 17:02:00,
2013-05-09 13:12:00,77.0,64.0,30.05,NE,51,1.0,1.0,65,0.00,,,0.00,,2013-05-09 17:12:00,
2013-05-09 13:21:00,77.0,64.0,30.04,South,177,2.0,2.0,64,0.00,,,0.00,,2013-05-09 17:21:00,
2013-05-09 13:32:00,78.0,64.0,30.04,South,177,1.0,1.0,62,0.00,,,0.00,,2013-05-09 17:32:00,
2013-05-09 13:42:00,78.0,66.0,30.03,North,360,0.0,0.0,66,0.00,,,0.00,,2013-05-09 17:42:00,
2013-05-09 13:55:00,78.0,66.0,30.03,North,360,0.0,0.0,66,0.00,,,0.00,,2013-05-09 17:55:00,
2013-05-09 14:01:00,80.0,67.0,30.03,North,360,0.0,0.0,65,0.00,,,0.00,,2013-05-09 18:01:00,
2013-05-09 14:12:00,80.0,67.0,30.03,North,360,0.0,0.0,65,0.00,,,0.00,,2013-05-09 18:12:00,
2013-05-09 14:21:00,81.0,66.0,30.03,SSE,165,1.0,3.0,61,0.00,,,0.00,,2013-05-09 18:21:00,
2013-05-09 14:32:00,82.0,66.0,30.02,NW,320,0.0,1.0,59,0.00,,,0.00,,2013-05-09 18:32:00,
2013-05-09 14:42:00,83.0,67.0,30.02,SW,232,0.0,1.0,59,0.00,,,0.00,,2013-05-09 18:42:00,
2013-05-09 14:52:00,83.0,67.0,30.02,SW,232,0.0,1.0,59,0.00,,,0.00,,2013-05-09 18:52:00,
2013-05-09 15:01:00,84.0,67.0,30.02,North,360,0.0,0.0,57,0.00,,,0.00,,2013-05-09 19:01:00,
2013-05-09 15:12:00,84.0,67.0,30.02,North,360,0.0,0.0,57,0.00,,,0.00,,2013-05-09 19:12:00,
2013-05-09 15:21:00,84.0,66.0,30.02,North,360,0.0,0.0,55,0.00,,,0.00,,2013-05-09 19:21:00,
2013-05-09 15:31:00,84.0,66.0,30.01,NNE,30,1.0,1.0,54,0.00,,,0.00,,2013-05-09 19:31:00,
2013-05-09 15:41:00,84.0,67.0,30.01,WNW,303,0.0,0.0,56,0.00,,,0.00,,2013-05-09 19:41:00,
2013-05-09 15:52:00,84.0,67.0,30.01,WNW,303,0.0,0.0,56,0.00,,,0.00,,2013-05-09 19:52:00,
2013-05-09 16:01:00,83.0,66.0,30.00,ENE,74,0.0,1.0,56,0.00,,,0.00,,2013-05-09 20:01:00,
2013-05-09 16:11:00,83.0,66.0,30.00,ENE,74,0.0,1.0,56,0.00,,,0.00,,2013-05-09 20:11:00,
2013-05-09 16:22:00,83.0,66.0,30.00,North,360,0.0,0.0,56,0.00,,,0.00,,2013-05-09 20:22:00,
2013-05-09 16:32:00,83.0,66.0,30.00,ENE,63,1.0,1.0,56,0.00,,,0.00,,2013-05-09 20:32:00,
2013-05-09 16:42:00,82.0,65.0,30.00,North,360,0.0,0.0,57,0.00,,,0.00,,2013-05-09 20:42:00,
2013-05-09 16:52:00,82.0,65.0,30.00,North,360,0.0,0.0,57,0.00,,,0.00,,2013-05-09 20:52:00,
2013-05-09 17:02:00,81.0,64.0,29.99,North,360,0.0,0.0,57,0.00,,,0.00,,2013-05-09 21:02:00,
2013-05-09 17:12:00,82.0,65.0,29.99,SSW,192,0.0,0.0,57,0.00,,,0.00,,2013-05-09 21:12:00,
2013-05-09 17:22:00,82.0,65.0,29.99,SSW,192,0.0,0.0,57,0.00,,,0.00,,2013-05-09 21:22:00,
2013-05-09 17:32:00,81.0,65.0,29.99,North,360,0.0,0.0,58,0.00,,,0.00,,2013-05-09 21:32:00,
2013-05-09 17:43:00,80.0,64.0,29.99,North,360,0.0,0.0,58,0.00,,,0.00,,2013-05-09 21:43:00,
2013-05-09 17:53:00,80.0,64.0,29.99,North,360,0.0,0.0,58,0.00,,,0.00,,2013-05-09 21:53:00,
2013-05-09 18:03:00,79.0,63.0,29.99,North,360,0.0,0.0,59,0.00,,,0.00,,2013-05-09 22:03:00,
2013-05-09 18:13:00,78.0,64.0,29.99,East,95,0.0,0.0,62,0.00,,,0.00,,2013-05-09 22:13:00,
2013-05-09 18:23:00,78.0,64.0,29.99,East,95,0.0,0.0,62,0.00,,,0.00,,2013-05-09 22:23:00,
2013-05-09 18:33:00,77.0,64.0,29.99,NE,35,1.0,1.0,65,0.00,,,0.00,,2013-05-09 22:33:00,
2013-05-09 18:42:00,77.0,65.0,29.99,SE,134,1.0,4.0,66,0.00,,,0.00,,2013-05-09 22:42:00,
2013-05-09 18:52:00,77.0,65.0,29.99,SE,134,1.0,4.0,66,0.00,,,0.00,,2013-05-09 22:52:00,
2013-05-09 19:02:00,76.0,64.0,29.99,North,360,0.0,0.0,67,0.00,,,0.00,,2013-05-09 23:02:00,
2013-05-09 19:12:00,75.0,64.0,29.99,North,360,0.0,0.0,68,0.00,,,0.00,,2013-05-09 23:12:00,
2013-05-09 19:22:00,75.0,64.0,29.99,North,360,0.0,0.0,68,0.00,,,0.00,,2013-05-09 23:22:00,
2013-05-09 19:32:00,75.0,64.0,29.99,North,360,0.0,0.0,69,0.00,,,0.00,,2013-05-09 23:32:00,
2013-05-09 19:42:00,74.0,64.0,30.00,North,360,0.0,0.0,70,0.00,,,0.00,,2013-05-09 23:42:00,
2013-05-09 19:52:00,74.0,64.0,30.00,North,360,0.0,0.0,70,0.00,,,0.00,,2013-05-09 23:52:00,
2013-05-09 20:01:00,74.0,64.0,30.00,North,360,0.0,1.0,70,0.00,,,0.00,,2013-05-10 00:01:00,
2013-05-09 20:11:00,73.0,63.0,30.00,NNE,20,0.0,0.0,72,0.00,,,0.00,,2013-05-10 00:11:00,
2013-05-09 20:22:00,73.0,63.0,30.00,NNE,20,0.0,0.0,72,0.00,,,0.00,,2013-05-10 00:22:00,
2013-05-09 20:32:00,73.0,63.0,30.00,NE,50,1.0,1.0,72,0.00,,,0.00,,2013-05-10 00:32:00,
2013-05-09 20:42:00,73.0,64.0,30.00,North,360,0.0,0.0,73,0.00,,,0.00,,2013-05-10 00:42:00,
2013-05-09 20:52:00,73.0,64.0,30.00,North,360,0.0,0.0,73,0.00,,,0.00,,2013-05-10 00:52:00,
2013-05-09 21:01:00,73.0,63.0,30.00,North,360,0.0,0.0,72,0.00,,,0.00,,2013-05-10 01:01:00,
2013-05-09 21:11:00,72.0,63.0,30.00,North,360,0.0,0.0,73,0.00,,,0.00,,2013-05-10 01:11:00,
2013-05-09 21:21:00,72.0,63.0,30.00,North,360,0.0,0.0,73,0.00,,,0.00,,2013-05-10 01:21:00,
2013-05-09 21:32:00,70.0,62.0,29.99,North,360,0.0,0.0,76,0.00,,,0.00,,2013-05-10 01:32:00,
2013-05-09 21:42:00,70.0,62.0,29.99,North,360,0.0,0.0,77,0.00,,,0.00,,2013-05-10 01:42:00,
2013-05-09 21:52:00,70.0,62.0,29.99,North,360,0.0,0.0,77,0.00,,,0.00,,2013-05-10 01:52:00,
2013-05-09 22:02:00,69.0,62.0,29.99,North,360,0.0,0.0,78,0.00,,,0.00,,2013-05-10 02:02:00,
2013-05-09 22:11:00,69.0,62.0,29.99,North,360,0.0,0.0,79,0.00,,,0.00,,2013-05-10 02:11:00,
2013-05-09 22:21:00,69.0,62.0,29.99,North,360,0.0,0.0,79,0.00,,,0.00,,2013-05-10 02:21:00,
2013-05-09 22:32:00,68.0,62.0,30.00,North,360,0.0,0.0,80,0.00,,,0.00,,2013-05-10 02:32:00,
2013-05-09 22:42:00,68.0,62.0,30.00,North,360,0.0,0.0,80,0.00,,,0.00,,2013-05-10 02:42:00,
2013-05-09 22:52:00,68.0,62.0,30.00,North,360,0.0,0.0,80,0.00,,,0.00,,2013-05-10 02:52:00,
2013-05-09 23:01:00,67.0,62.0,30.01,North,360,0.0,0.0,83,0.00,,,0.00,,2013-05-10 03:01:00,
2013-05-09 23:11:00,67.0,62.0,30.01,North,360,0.0,0.0,83,0.00,,,0.00,,2013-05-10 03:11:00,
2013-05-09 23:22:00,67.0,62.0,30.01,North,360,0.0,0.0,83,0.00,,,0.00,,2013-05-10 03:22:00,
2013-05-09 23:33:00,67.0,62.0,30.02,North,360,0.0,0.0,84,0.00,,,0.00,,2013-05-10 03:33:00,
2013-05-09 23:43:00,66.0,61.0,30.03,North,360,0.0,0.0,85,0.00,,,0.00,,2013-05-10 03:43:00,
2013-05-09 23:53:00,66.0,61.0,30.03,North,360,0.0,0.0,85,0.00,,,0.00,,2013-05-10 03:53:00,